Nampa, ID

7:31 AM MDT on May 26, 2017 (GMT -0600)
Nampa

Weather History for KMAN - February, 2013

Change the Weather History Date:

Friday, February 1, 2013

  Actual Average (KBOI) Record (KBOI)
Temperature  
Mean Temperature 34 °F -  
Max Temperature 41 °F 40 °F 59 °F (1992)
Min Temperature 26 °F 23 °F -10 °F (1950)
Degree Days  
Heating Degree Days 32    
Moisture  
Dew Point 31 °F    
Average Humidity 100    
Maximum Humidity 100    
Minimum Humidity 100    
Precipitation  
Precipitation 0.00 in - - ()
Sea Level Pressure  
Sea Level Pressure 30.36 in    
Wind  
Wind Speed 1 mph (NW)    
Max Wind Speed 6 mph    
Max Gust Speed -    
Visibility 3 miles    
Events      
Averages and records for this station are not official NWS values.
T = Trace of Precipitation, MM = Missing Value Source: NWS Daily Summary

Daily Weather History Graph

Daily Weather History Graph

Search for Another Location

Airport or City:

Trip Planner

Search our weather history database for the weather conditions in past years. The results will help you decide how hot, cold, wet, or windy it might be!

Date:

Astronomy

Feb. 01, 2013 Rise Set
Actual Time 8:02 AM MST 5:57 PM MST
Civil Twilight 7:31 AM MST 6:28 PM MST
Nautical Twilight 6:57 AM MST 7:02 PM MST
Astronomical Twilight 6:23 AM MST 7:36 PM MST
Moon No Moon Rise 10:25 AM MST (2/1)
Length of Visible Light 10h 56m
Length of Day
9h 55m
Waning Gibbous, 69% of the Moon is Illuminated
Feb 1
Waning Gibbous
Feb 3
Last Quarter
Feb 10
New
Feb 17
First Quarter
Feb 25
Full

Hourly Weather History & Observations

Time (MST) Temp. Windchill Dew Point Humidity Pressure Visibility Wind Dir Wind Speed Gust Speed Precip Events Conditions
12:15 AM 28.4 °F - 28.4 °F 100% 30.28 in 7.0 mi Calm Calm - N/A   Mostly Cloudy
12:35 AM 30.2 °F - 30.2 °F 100% 30.29 in 6.0 mi Calm Calm - N/A   Mostly Cloudy
12:55 AM 30.2 °F - 30.2 °F 100% 30.28 in 5.0 mi Calm Calm - N/A   Partly Cloudy
1:15 AM 28.4 °F - 28.4 °F 100% 30.29 in 4.0 mi Calm Calm - N/A   Partly Cloudy
1:35 AM 28.4 °F - 28.4 °F 100% 30.29 in 3.0 mi Calm Calm - N/A   Mostly Cloudy
1:55 AM 28.4 °F - 28.4 °F 100% 30.29 in 0.2 mi Calm Calm - N/A   Overcast
2:15 AM 28.4 °F 24.6 °F 28.4 °F 100% 30.29 in 0.2 mi South 3.5 mph - N/A   Overcast
2:35 AM 28.4 °F - 28.4 °F 100% 30.30 in 0.2 mi Calm Calm - N/A   Overcast
2:55 AM 28.4 °F - 28.4 °F 100% 30.30 in 0.2 mi Calm Calm - N/A   Overcast
3:15 AM 28.4 °F - 28.4 °F 100% 30.30 in 0.2 mi Calm Calm - N/A   Overcast
3:35 AM 28.4 °F - 28.4 °F 100% 30.30 in 0.2 mi Calm Calm - N/A   Overcast
3:55 AM 28.4 °F - 28.4 °F 100% 30.30 in 0.2 mi Calm Calm - N/A   Overcast
4:15 AM 28.4 °F - 28.4 °F 100% 30.30 in 0.2 mi Calm Calm - N/A   Overcast
4:35 AM 28.4 °F - 28.4 °F 100% 30.31 in 0.2 mi Calm Calm - N/A   Overcast
4:55 AM 28.4 °F - 28.4 °F 100% 30.30 in 0.2 mi Calm Calm - N/A   Overcast
5:15 AM 28.4 °F - 28.4 °F 100% 30.30 in 0.2 mi Calm Calm - N/A   Overcast
5:35 AM 28.4 °F - 28.4 °F 100% 30.30 in 0.2 mi Calm Calm - N/A   Overcast
5:55 AM 26.6 °F - 26.6 °F 100% 30.30 in 0.2 mi Calm Calm - N/A   Overcast
6:35 AM 26.6 °F - 26.6 °F 100% 30.30 in 0.2 mi Calm Calm - N/A   Overcast
6:55 AM 26.6 °F - 26.6 °F 100% 30.31 in 0.2 mi Calm Calm - N/A   Overcast
7:15 AM 26.6 °F - 26.6 °F 100% 30.32 in 0.2 mi Calm Calm - N/A   Overcast
7:35 AM 26.6 °F - 26.6 °F 100% 30.32 in 0.2 mi Calm Calm - N/A   Overcast
7:55 AM 28.4 °F - 28.4 °F 100% 30.32 in 0.2 mi Calm Calm - N/A   Overcast
8:15 AM 28.4 °F - 28.4 °F 100% 30.33 in 0.2 mi Calm Calm - N/A   Overcast
8:35 AM 28.4 °F - 28.4 °F 100% 30.33 in 0.2 mi Calm Calm - N/A   Overcast
8:55 AM 28.4 °F - 28.4 °F 100% 30.34 in 0.5 mi Calm Calm - N/A   Overcast
9:15 AM 28.4 °F - 28.4 °F 100% 30.35 in 0.5 mi Calm Calm - N/A   Overcast
9:35 AM 28.4 °F - 28.4 °F 100% 30.36 in 1.5 mi Calm Calm - N/A   Overcast
9:55 AM 30.2 °F - 30.2 °F 100% 30.36 in 1.2 mi Calm Calm - N/A   Overcast
10:15 AM 32.0 °F 26.4 °F 32.0 °F 100% 30.36 in 0.2 mi West 5.8 mph - N/A   Overcast
10:35 AM 32.0 °F - 32.0 °F 100% 30.37 in 0.2 mi Calm Calm - N/A   Overcast
10:55 AM 32.0 °F - 32.0 °F 100% 30.37 in 0.2 mi Calm Calm - N/A   Overcast
11:15 AM 32.0 °F - 32.0 °F 100% 30.37 in 0.2 mi Calm Calm - N/A   Overcast
11:35 AM 32.0 °F 28.7 °F 32.0 °F 100% 30.37 in 0.2 mi NNW 3.5 mph - N/A   Overcast
11:55 AM 32.0 °F - 32.0 °F 100% 30.38 in 0.2 mi Calm Calm - N/A   Overcast
12:15 PM 32.0 °F - 32.0 °F 100% 30.39 in 0.2 mi Calm Calm - N/A   Overcast
12:35 PM 32.0 °F - 32.0 °F 100% 30.38 in 0.2 mi Calm Calm - N/A   Overcast
12:55 PM 32.0 °F 28.7 °F 32.0 °F 100% 30.38 in 0.2 mi NNW 3.5 mph - N/A   Overcast
1:15 PM 32.0 °F 28.7 °F 32.0 °F 100% 30.38 in 0.5 mi WNW 3.5 mph - N/A   Overcast
1:35 PM 33.8 °F 30.8 °F 33.8 °F 100% 30.38 in 1.2 mi West 3.5 mph - N/A   Overcast
1:55 PM 35.6 °F - 35.6 °F 100% 30.38 in 2.5 mi Calm Calm - N/A   Scattered Clouds
2:15 PM 35.6 °F - 35.6 °F 100% 30.37 in 3.0 mi Calm Calm - N/A   Clear
2:35 PM 37.4 °F 33.8 °F 37.4 °F 100% 30.37 in 10.0 mi North 4.6 mph - N/A   Clear
2:55 PM 39.2 °F 35.0 °F 39.2 °F 100% 30.37 in 10.0 mi North 5.8 mph - N/A   Clear
3:15 PM 39.2 °F 35.0 °F 39.2 °F 100% 30.38 in 10.0 mi North 5.8 mph - N/A   Clear
3:35 PM 41.0 °F 38.0 °F 41.0 °F 100% 30.37 in 10.0 mi North 4.6 mph - N/A   Clear
3:55 PM 41.0 °F 38.0 °F 41.0 °F 100% 30.37 in 10.0 mi North 4.6 mph - N/A   Clear
4:15 PM 41.0 °F 37.1 °F 41.0 °F 100% 30.38 in 10.0 mi NW 5.8 mph - N/A   Clear
4:35 PM 39.2 °F 35.0 °F 39.2 °F 100% 30.37 in 10.0 mi NNW 5.8 mph - N/A   Clear
4:55 PM 39.2 °F 35.9 °F 39.2 °F 100% 30.37 in 10.0 mi NW 4.6 mph - N/A   Clear
5:15 PM 39.2 °F 37.0 °F 39.2 °F 100% 30.38 in 10.0 mi NNW 3.5 mph - N/A   Clear
5:55 PM 37.4 °F 34.9 °F 37.4 °F 100% 30.38 in 10.0 mi WNW 3.5 mph - N/A   Clear
6:15 PM 37.4 °F 34.9 °F 37.4 °F 100% 30.38 in 10.0 mi NW 3.5 mph - N/A   Clear
6:35 PM 35.6 °F 32.8 °F 35.6 °F 100% 30.38 in 10.0 mi NW 3.5 mph - N/A   Clear
6:55 PM 35.6 °F - 35.6 °F 100% 30.39 in 10.0 mi Calm Calm - N/A   Clear
7:15 PM 33.8 °F - 33.8 °F 100% 30.39 in 10.0 mi Calm Calm - N/A   Clear
7:35 PM 32.0 °F - 32.0 °F 100% 30.40 in 7.0 mi Calm Calm - N/A   Clear
7:55 PM 32.0 °F 28.7 °F 32.0 °F 100% 30.40 in 8.0 mi WSW 3.5 mph - N/A   Clear
8:15 PM 32.0 °F - 32.0 °F 100% 30.40 in 5.0 mi Calm Calm - N/A   Clear
8:55 PM 32.0 °F 28.7 °F 32.0 °F 100% 30.41 in 4.0 mi WNW 3.5 mph - N/A   Clear
9:15 PM 30.2 °F - 30.2 °F 100% 30.41 in 1.0 mi Calm Calm - N/A   Overcast
9:35 PM 28.4 °F - 28.4 °F 100% 30.41 in 0.2 mi Calm Calm - N/A   Overcast
9:55 PM 28.4 °F - 28.4 °F 100% 30.42 in 0.2 mi Calm Calm - N/A   Overcast
10:15 PM 26.6 °F - 26.6 °F 100% 30.44 in 0.2 mi Calm Calm - N/A   Overcast
10:35 PM 26.6 °F - 26.6 °F 100% 30.44 in 0.2 mi Calm Calm - N/A   Overcast
10:55 PM 26.6 °F - 26.6 °F 100% 30.45 in 0.2 mi Calm Calm - N/A   Overcast
11:15 PM 26.6 °F - 26.6 °F 100% 30.44 in 0.2 mi Calm Calm - N/A   Overcast
11:35 PM 26.6 °F - 26.6 °F 100% 30.45 in 0.2 mi Calm Calm - N/A   Overcast
11:55 PM 26.6 °F - 26.6 °F 100% 30.45 in 0.2 mi Calm Calm - N/A   Overcast